This is the latest recevied weather packets stored in our database for station/object N0QV. If no packets are shown the sender has not sent any weather packets the latest 10 day(s).
| Time | Temp. | Humidity | Pressure | Rain* | Wind** | Luminosity | Snow |
|---|---|---|---|---|---|---|---|
| 1777906643 | 16.11° C | 38% | 1000.5 hPa | 0 mm | - | 376 W/m² | - |
| 1777906338 | 16.11° C | 38% | 1000.7 hPa | 0 mm | - | 327 W/m² | - |
| 1777906035 | 16.67° C | 37% | 1000.5 hPa | 0 mm | - | 383 W/m² | - |
| 1777905731 | 16.67° C | 38% | 1000.3 hPa | 0 mm | - | 396 W/m² | - |
| 1777905429 | 16.11° C | 39% | 1000.3 hPa | 0 mm | - | 385 W/m² | - |
| 1777905127 | 16.11° C | 38% | 1000.4 hPa | 0 mm | - | 374 W/m² | - |
| 1777904823 | 16.67° C | 40% | 1000.3 hPa | 0 mm | - | 335 W/m² | - |
| 1777904520 | 16.11° C | 41% | 1000.4 hPa | 0 mm | - | 269 W/m² | - |
| 1777904216 | 16.67° C | 42% | 1000 hPa | 0 mm | - | 271 W/m² | - |
| 1777903914 | 16.67° C | 41% | 1000.1 hPa | 0 mm | - | 279 W/m² | - |
| 1777903611 | 17.22° C | 43% | 1000.2 hPa | 0 mm | - | 230 W/m² | - |
| 1777903306 | 17.22° C | 46% | 999.9 hPa | 0 mm | - | 224 W/m² | - |
| 1777903003 | 17.22° C | 46% | 999.8 hPa | 0 mm | - | 289 W/m² | - |
| 1777902699 | 16.67° C | 46% | 999.8 hPa | 0 mm | - | 258 W/m² | - |
| 1777902397 | 17.22° C | 46% | 999.7 hPa | 0 mm | - | 232 W/m² | - |
| 1777902093 | 16.67° C | 46% | 999.6 hPa | 0 mm | - | 278 W/m² | - |
| 1777901792 | 16.67° C | 46% | 999.7 hPa | 0 mm | - | 212 W/m² | - |
| 1777901489 | 16.67° C | 47% | 999.7 hPa | 0 mm | - | 160 W/m² | - |
| 1777901186 | 16.67° C | 46% | 999.8 hPa | 0 mm | - | 163 W/m² | - |
| 1777900884 | 16.67° C | 45% | 999.9 hPa | 0 mm | - | 209 W/m² | - |
| 1777900581 | 16.67° C | 45% | 999.9 hPa | 0 mm | - | 222 W/m² | - |
| 1777900278 | 16.11° C | 47% | 999.8 hPa | 0 mm | - | 211 W/m² | - |
| 1777899975 | 16.11° C | 45% | 999.7 hPa | 0 mm | - | 164 W/m² | - |
| 1777899671 | 15.56° C | 48% | 999.9 hPa | 0 mm | - | 112 W/m² | - |
| 1777899369 | 15.56° C | 49% | 999.7 hPa | 0 mm | - | 97 W/m² | - |
* Rain latest hour (hover to see other rain measurements)
** Current wind speed in m/s (hover to see current wind gust speed)